[[{"header":{"parameterUnit":"m.s-1","parameterCategory":1,"la1":30.2991,"la2":30.254,"lo1":-89.0895,"lo2":-89.0444,"dy":0.0017,"dx":0.0017,"nx":28,"ny":28,"refTime":"2023-11-11T09:00:00:Z","depth":0,"parameterNumber":2,"parameterNumberName":"U-component_of_WINDS"},"data":[0,0,0,0,0,0,0,0,0,0,0,0,0,0,0,0,0,0,0,0,0,0,0,0,0,0,0,0,0,0,0,0,0,0,0,0,0,0,0,0,0,0,0,0,0,0,0,0,0,0,0,0,0,0,0,0,0,0,-1.9394,-1.9395,0,-1.9499,-1.95,-1.9501,-1.9499,-1.9497,-1.9496,-1.9494,-1.9603,-1.9607,-1.9611,0,0,0,0,0,0,0,0,0,0,0,0,0,-1.9191,-1.9195,-1.9394,-1.9395,-1.9396,-1.9499,-1.95,-1.9502,-1.9499,-1.9497,-1.9495,-1.9494,-1.9601,-1.9606,-1.9611,0,0,0,0,0,0,0,0,0,0,0,0,0,-1.9286,-1.9196,-1.9394,-1.9407,-1.941,-1.9498,-1.95,-1.9502,-1.9499,-1.9497,-1.9495,-1.9493,-1.96,-1.9606,-1.9612,-1.9694,0,0,-1.9631,-1.9634,0,0,0,0,0,0,0,0,-1.9281,-1.9293,-1.9404,-1.9407,-1.9409,-1.9483,-1.9468,-1.9566,-1.95,-1.9465,-1.9494,-1.9492,-1.9565,-1.9574,-1.9598,-1.9699,-1.9704,-1.9632,-1.9636,-1.9639,-1.964,0,0,0,0,0,0,0,-1.9274,-1.9289,-1.9435,-1.9406,-1.9409,-1.9408,-1.9419,-1.9487,-1.9526,-1.9468,-1.9468,-1.9481,-1.9566,-1.9592,-1.9601,-1.9706,-1.9632,-1.9637,-1.9641,-1.9644,-1.9879,-1.9882,0,0,0,0,0,0,-1.9264,-1.9283,-1.9432,-1.9439,-1.9338,-1.9414,-1.9426,-1.9462,-1.9525,-1.9533,-1.9482,-1.948,-1.9582,-1.9593,-1.9605,-1.9706,-1.9638,-1.9644,-1.9648,-1.9877,-1.988,-1.9883,0,0,0,0,0,0,-1.926,-1.9278,-1.9428,-1.9361,-1.938,-1.942,-1.946,-1.9465,-1.9491,-1.9536,-1.9543,-1.9502,-1.9581,-1.9596,-1.9672,-1.9709,-1.9647,-1.9653,-1.9874,-1.9878,-1.9881,-1.9908,0,0,0,0,0,0,-1.9254,-1.9276,-1.9308,-1.9362,-1.9384,-1.9494,-1.9462,-1.9469,-1.9502,-1.95,-1.9556,-1.9564,-1.9581,-1.9663,-1.9678,-1.9717,-1.9658,-1.9871,-1.9876,-1.988,-1.9904,-1.9912,-1.9919,0,0,0,0,0,-1.9247,-1.9311,-1.931,-1.9328,-1.9424,-1.9496,-1.9508,-1.9526,-1.9505,-1.9538,-1.9566,-1.9562,-1.9702,-1.967,-1.9688,-1.9729,-1.9869,-1.9874,-1.988,-1.9901,-1.9911,-1.9919,0,0,0,0,0,0,-1.9262,-1.9319,-1.9317,-1.9401,-1.9443,-1.9495,-1.9537,-1.9536,-1.9586,-1.9582,-1.9603,-1.9615,-1.9692,-1.9718,-1.9681,-1.9812,-1.9783,-1.9792,-1.9793,-1.9802,-1.981,-1.9803,-1.9663,0,0,0,0,0,-1.9274,-1.9328,-1.9375,-1.9444,-1.9465,-1.9497,-1.9529,-1.9539,-1.9584,-1.9602,-1.9636,-1.968,-1.9734,-1.9769,-1.9822,-1.9907,-1.9919,-1.9944,-1.9951,-1.9957,-1.9966,-2.0013,-2.0025,-1.9901,-1.9901,-1.9901,0,0,-1.9302,-1.9339,-1.9372,-1.9448,-1.9482,-1.9537,-1.9512,-1.9571,-1.9613,-1.9611,-1.9686,-1.9712,-1.9762,-1.9843,-1.9881,-1.9868,-2.0003,-1.9964,-1.9969,-1.9974,-2.002,-2.0032,-2.0042,-1.9904,-1.9904,-1.9903,0,0,-1.938,-1.9413,-1.9475,-1.9509,-1.9561,-1.9582,-1.9596,-1.9648,-1.9665,-1.974,-1.974,-1.9789,-1.9882,-1.9918,-1.9948,-2.0038,-2.0037,-2.0054,-2.0095,-2.0141,-2.0151,-2.0159,-2.0193,-2.0204,-2.0062,-2.0062,-2.0062,0,-1.9408,-1.949,-1.9507,-1.9566,-1.96,-1.96,-1.9663,-1.9695,-1.9762,-1.9785,-1.9768,-1.9885,-1.9918,-2.0008,-2.003,-2.0054,-2.0072,-2.0049,-2.0148,-2.0157,-2.0165,-2.0197,-2.021,-2.0064,-2.0064,-2.0064,-2.0064,0,-1.9522,-1.9579,-1.9623,-1.9686,-1.9724,-1.9785,-1.9811,-1.9848,-1.9854,-1.9876,-1.9952,-1.9992,-2.0053,-2.0074,-2.0081,-2.0166,-2.0156,-2.0143,-2.0115,-2.0179,-2.0209,-2.0221,-2.0067,-2.0066,-2.0066,-2.0065,0,0,-1.9614,-1.9685,-1.9701,-1.973,-1.9787,-1.9831,-1.9891,-1.995,-1.9982,-2.0026,-2.0078,-2.0156,-2.0145,-2.0179,-2.019,-2.023,-2.03,-2.0213,-2.0214,-2.0229,-2.0396,-2.0406,-2.042,-2.0298,-2.03,-2.0302,-2.0392,0,-1.9699,-1.9807,-1.9823,-1.9918,-1.9971,-1.9972,-2.0024,-2.0065,-2.0087,-2.0135,-2.0159,-2.0214,-2.0195,-2.0216,-2.0255,-2.0283,-2.0334,-2.0276,-2.0347,-2.035,-2.0336,-2.0436,-2.0447,-2.0529,-2.0404,-2.0406,-2.0407,0,-1.9814,-1.9862,-1.9962,-2.0011,-2.0034,-2.0081,-2.0136,-2.0182,-2.0227,-2.024,-2.0278,-2.0284,-2.0346,-2.0313,-2.04,-2.0361,-2.039,-2.0408,-2.0412,-2.0421,-2.0384,-2.0448,-2.0556,-2.0569,-2.0426,-2.0424,-2.0423,0,-1.9873,-1.9962,-2.0033,-2.0058,-2.0116,-2.015,-2.0175,-2.0219,-2.0253,-2.0301,-2.0323,-2.0377,-2.0408,-2.0449,-2.0469,-2.0443,-2.0555,-2.0524,-2.0569,-2.0568,-2.0594,-2.0593,-2.071,-2.061,-2.061,-2.061,-2.061,0,-1.9967,-2.0029,-2.0061,-2.0105,-2.0174,-2.0191,-2.0259,-2.0284,-2.0322,-2.0371,-2.0374,-2.042,-2.0443,-2.0492,-2.0508,-2.0578,-2.0591,-2.0604,-2.0608,-2.0605,-2.0604,-2.0626,-2.0621,-2.0613,-2.0612,-2.0612,-2.0611,0,-2.0045,-2.0069,-2.0147,-2.0196,-2.0209,-2.0258,-2.03,-2.0343,-2.0363,-2.0425,-2.0441,-2.0474,-2.0532,-2.0556,-2.0627,-2.0638,-2.0719,-2.0717,-2.0704,-2.0705,-2.0749,-2.0745,-2.0886,-2.0906,-2.0792,-2.0793,-2.0794,0,-2.0105,-2.0152,-2.0206,-2.0239,-2.0265,-2.0318,-2.0353,-2.0371,-2.0407,-2.0462,-2.0499,-2.0556,-2.0604,-2.0697,-2.0728,-2.0782,-2.0783,-2.0829,-2.0791,-2.0787,-2.0785,-2.0783,-2.0788,-2.0836,-2.0837,-2.0838,-2.0839,0,-2.0209,-2.0218,-2.0268,-2.0322,-2.0363,-2.0406,-2.0448,-2.0475,-2.05,-2.054,-2.0599,-2.0636,-2.0709,-2.0766,-2.0822,-2.0849,-2.0849,-2.085,-2.0863,-2.0862,-2.0852,-2.0859,-2.0724,-2.0847,-2.0846,-2.0846,-2.0845,-2.0845,-2.0281,-2.0323,-2.0367,-2.0422,-2.0455,-2.0495,-2.0537,-2.0563,-2.0613,-2.0673,-2.0681,-2.0745,-2.0788,-2.0863,-2.0892,-2.0942,-2.0931,-2.095,-2.0955,-2.096,-2.0963,-2.0843,-2.0952,-2.0952,-2.0952,-2.0952,-2.0952,0,-2.0386,-2.0414,-2.0464,-2.0523,-2.0566,-2.0561,-2.0607,-2.0644,-2.07,-2.074,-2.0787,-2.0855,-2.091,-2.0945,-2.1001,-2.1034,-2.1035,-2.1048,-2.1047,-2.1053,-2.097,-2.0954,-2.1047,-2.1047,-2.1047,-2.1047,-2.1047,-2.1047,-2.0446,-2.0517,-2.0531,-2.0619,-2.0646,-2.0709,-2.0735,-2.0772,-2.0804,-2.088,-2.0926,-2.0947,-2.0986,-2.1044,-2.1095,-2.1104,-2.1125,-2.1139,-2.1147,-2.1069,-2.1059,-2.105,-2.1034,-2.1143,-2.1143,-2.1226,-2.1227,-2.1227]},{"header":{"parameterUnit":"m.s-1","parameterCategory":1,"la1":30.2991,"la2":30.254,"lo1":-89.0895,"lo2":-89.0444,"dy":0.0017,"dx":0.0017,"nx":28,"ny":28,"refTime":"2023-11-11T09:00:00:Z","depth":0,"parameterNumber":3,"parameterNumberName":"V-component_of_WINDS"},"data":[0,0,0,0,0,0,0,0,0,0,0,0,0,0,0,0,0,0,0,0,0,0,0,0,0,0,0,0,0,0,0,0,0,0,0,0,0,0,0,0,0,0,0,0,0,0,0,0,0,0,0,0,0,0,0,0,0,0,-5.084,-5.084,0,-5.0913,-5.0914,-5.0914,-5.0869,-5.0867,-5.0865,-5.0863,-5.0933,-5.0936,-5.094,0,0,0,0,0,0,0,0,0,0,0,0,0,-5.0655,-5.0659,-5.084,-5.0841,-5.0841,-5.0913,-5.0914,-5.0915,-5.087,-5.0867,-5.0865,-5.0862,-5.0931,-5.0936,-5.0941,0,0,0,0,0,0,0,0,0,0,0,0,0,-5.0732,-5.066,-5.0839,-5.0828,-5.0827,-5.0912,-5.0914,-5.0915,-5.087,-5.0867,-5.0864,-5.0861,-5.093,-5.0935,-5.0941,-5.104,0,0,-5.0959,-5.0961,0,0,0,0,0,0,0,0,-5.0728,-5.0739,-5.0829,-5.0829,-5.0829,-5.0879,-5.0874,-5.0957,-5.0871,-5.0854,-5.0863,-5.0859,-5.0917,-5.0924,-5.0944,-5.1043,-5.1046,-5.0959,-5.0963,-5.0965,-5.0967,0,0,0,0,0,0,0,-5.0723,-5.0736,-5.0868,-5.083,-5.083,-5.0817,-5.0824,-5.0889,-5.0902,-5.0855,-5.0852,-5.0862,-5.0916,-5.0939,-5.0945,-5.1047,-5.0959,-5.0964,-5.0968,-5.097,-5.123,-5.1234,0,0,0,0,0,0,-5.0719,-5.0731,-5.0866,-5.0871,-5.077,-5.0823,-5.0831,-5.0866,-5.0901,-5.0904,-5.0864,-5.0859,-5.093,-5.0939,-5.0948,-5.1066,-5.0965,-5.097,-5.0974,-5.1227,-5.1231,-5.1235,0,0,0,0,0,0,-5.0715,-5.0731,-5.0863,-5.08,-5.0816,-5.0829,-5.0869,-5.0869,-5.0891,-5.0908,-5.091,-5.0885,-5.0928,-5.094,-5.1018,-5.1067,-5.0973,-5.0978,-5.1223,-5.1228,-5.1233,-5.1302,0,0,0,0,0,0,-5.071,-5.073,-5.077,-5.0802,-5.082,-5.0934,-5.0872,-5.0873,-5.0902,-5.0896,-5.0928,-5.0931,-5.0927,-5.1009,-5.1023,-5.1074,-5.0983,-5.1218,-5.1225,-5.1231,-5.1296,-5.1309,-5.1321,0,0,0,0,0,-5.0704,-5.0785,-5.0772,-5.0788,-5.0869,-5.0937,-5.0947,-5.0942,-5.0906,-5.0945,-5.0955,-5.093,-5.106,-5.1018,-5.1033,-5.1086,-5.1215,-5.1223,-5.1231,-5.129,-5.1307,-5.1321,0,0,0,0,0,0,-5.0757,-5.0789,-5.0775,-5.087,-5.0901,-5.0929,-5.0978,-5.096,-5.1001,-5.0994,-5.0984,-5.0992,-5.1074,-5.1087,-5.104,-5.1183,-5.1131,-5.1143,-5.1171,-5.1187,-5.12,-5.1194,-5.0988,0,0,0,0,0,-5.078,-5.0834,-5.0859,-5.094,-5.0956,-5.0965,-5.0994,-5.0988,-5.1019,-5.1032,-5.1048,-5.1078,-5.1125,-5.1157,-5.1202,-5.1297,-5.1303,-5.1341,-5.1353,-5.1364,-5.1374,-5.1424,-5.1441,-5.1261,-5.126,-5.126,0,0,-5.0828,-5.0852,-5.0886,-5.0951,-5.0975,-5.1029,-5.0976,-5.1036,-5.1076,-5.104,-5.1115,-5.1128,-5.1161,-5.1248,-5.1287,-5.1262,-5.1425,-5.1374,-5.1382,-5.1386,-5.1434,-5.1451,-5.1466,-5.1266,-5.1265,-5.1264,0,0,-5.0942,-5.0967,-5.1037,-5.1062,-5.1099,-5.1104,-5.1121,-5.1152,-5.116,-5.1236,-5.121,-5.1256,-5.1338,-5.1362,-5.1385,-5.1509,-5.1486,-5.1523,-5.1589,-5.1639,-5.1653,-5.1665,-5.1709,-5.1725,-5.1533,-5.1533,-5.1533,0,-5.0997,-5.108,-5.1075,-5.1137,-5.1166,-5.1138,-5.1207,-5.1231,-5.128,-5.13,-5.1271,-5.1373,-5.1393,-5.1486,-5.1516,-5.1535,-5.1553,-5.152,-5.1652,-5.1664,-5.1676,-5.1717,-5.1733,-5.1537,-5.1537,-5.1536,-5.1536,0,-5.1144,-5.1202,-5.1254,-5.1304,-5.1338,-5.1404,-5.1407,-5.1442,-5.1432,-5.1439,-5.1516,-5.1539,-5.1587,-5.1609,-5.1599,-5.1699,-5.1682,-5.1653,-5.1601,-5.1697,-5.1736,-5.1752,-5.1543,-5.1542,-5.1541,-5.154,0,0,-5.1295,-5.1342,-5.1361,-5.1383,-5.1422,-5.1465,-5.1528,-5.1578,-5.1608,-5.1642,-5.1694,-5.1764,-5.1737,-5.1763,-5.1756,-5.1799,-5.1895,-5.1764,-5.1765,-5.1787,-5.2005,-5.2027,-5.2046,-5.188,-5.1883,-5.1885,-5.2003,0,-5.1412,-5.1526,-5.1523,-5.1627,-5.168,-5.1653,-5.1708,-5.1737,-5.1745,-5.1789,-5.1797,-5.1847,-5.1807,-5.1823,-5.1865,-5.1875,-5.1938,-5.1866,-5.1927,-5.1929,-5.192,-5.2066,-5.209,-5.22,-5.2018,-5.202,-5.2022,0,-5.1564,-5.1606,-5.1716,-5.1747,-5.1768,-5.1818,-5.1863,-5.1906,-5.1937,-5.1939,-5.1969,-5.1955,-5.2017,-5.1963,-5.2048,-5.1999,-5.2023,-5.2032,-5.2036,-5.2041,-5.1981,-5.2075,-5.2234,-5.2251,-5.2046,-5.2044,-5.2042,0,-5.1663,-5.1746,-5.1823,-5.1842,-5.188,-5.1916,-5.1932,-5.196,-5.199,-5.2028,-5.2047,-5.2091,-5.2115,-5.2148,-5.2146,-5.2107,-5.2231,-5.2178,-5.2234,-5.2234,-5.2262,-5.226,-5.2427,-5.2278,-5.2277,-5.2277,-5.2277,0,-5.1794,-5.1862,-5.1868,-5.1915,-5.199,-5.1985,-5.2059,-5.2072,-5.2097,-5.2145,-5.2123,-5.2168,-5.2162,-5.2206,-5.2204,-5.2274,-5.2285,-5.2288,-5.2286,-5.229,-5.2289,-5.2306,-5.2298,-5.2281,-5.228,-5.228,-5.2279,0,-5.1917,-5.1924,-5.2006,-5.2035,-5.2044,-5.2098,-5.2121,-5.2165,-5.2171,-5.2232,-5.2246,-5.2255,-5.2306,-5.2306,-5.2364,-5.2363,-5.2448,-5.2438,-5.2439,-5.2437,-5.2493,-5.2487,-5.2676,-5.27,-5.2535,-5.2537,-5.2538,0,-5.2001,-5.2053,-5.2088,-5.212,-5.2139,-5.219,-5.222,-5.2216,-5.2249,-5.2288,-5.2326,-5.2376,-5.2415,-5.2497,-5.2508,-5.2551,-5.2542,-5.2605,-5.2548,-5.255,-5.2543,-5.254,-5.2544,-5.2616,-5.2618,-5.2619,-5.2621,0,-5.2148,-5.2148,-5.2194,-5.2242,-5.2279,-5.2315,-5.2348,-5.2375,-5.2374,-5.2411,-5.2464,-5.2495,-5.2554,-5.2603,-5.2645,-5.266,-5.264,-5.2638,-5.2654,-5.2658,-5.2656,-5.2657,-5.2469,-5.2634,-5.2633,-5.2632,-5.2631,-5.263,-5.2253,-5.2299,-5.2331,-5.2382,-5.2407,-5.2439,-5.2482,-5.2493,-5.2538,-5.2588,-5.2582,-5.2641,-5.2668,-5.2724,-5.2742,-5.2786,-5.2764,-5.2786,-5.2792,-5.2798,-5.2804,-5.2649,-5.2794,-5.2794,-5.2793,-5.2793,-5.2793,0,-5.2399,-5.2419,-5.2466,-5.2515,-5.2555,-5.2534,-5.257,-5.2604,-5.2656,-5.2685,-5.2725,-5.2785,-5.2832,-5.2846,-5.2891,-5.2924,-5.2915,-5.2935,-5.2933,-5.2936,-5.2821,-5.2803,-5.2941,-5.2941,-5.2941,-5.2941,-5.2941,-5.2941,-5.248,-5.2555,-5.256,-5.2646,-5.2664,-5.2723,-5.2745,-5.2774,-5.2797,-5.2865,-5.2905,-5.2915,-5.2937,-5.2983,-5.3025,-5.3027,-5.3045,-5.3069,-5.3068,-5.296,-5.2945,-5.293,-5.2914,-5.3073,-5.3073,-5.3179,-5.318,-5.3181]}]]